This demonstration page uses our WeatherBlox Daily Observations layout. Learn more.

40.92945, -100.16068

Hourly Observations for April 21, 2017

Temp ( °F °C ) Dew Point ( °F °C ) Humidity (%) Winds ( mph kmh ) Pressure ( in mb ) Visibility ( mi km ) Precip ( " mm )
12:15 am 00:15 Partly Cloudy 53 11.9 39 4 59 59 E 9 15 30.12 1020 10 16.0934 0 0
12:35 am 00:35 Clear 52 11.2 39 4 61 61 E 10 17 30.12 1020 10 16.0934 0 0
12:55 am 00:55 Clear 51 10.8 39 4 63 63 E 9 15 30.15 1021 10 16.0934 0 0
1:15 am 01:15 Clear 51 10.6 39 4 64 64 E 13 20 30.15 1021 10 16.0934 0 0
1:35 am 01:35 Clear 50 10.2 39 4.1 66 66 E 13 20 30.15 1021 10 16.0934 0 0
1:55 am 01:55 Clear 50 9.8 40 4.2 68 68 E 12 19 30.12 1020 10 16.0934 0 0
2:15 am 02:15 Clear 49 9.6 40 4.3 70 70 E 13 20 30.12 1020 10 16.0934 0 0
2:35 am 02:35 Clear 49 9.3 40 4.5 72 72 E 12 19 30.12 1020 10 16.0934 0 0
2:55 am 02:55 Clear 48 9 40 4.6 74 74 E 12 19 30.12 1020 10 16.0934 0 0
3:15 am 03:15 Clear 47 8.6 40 4.5 76 76 E 14 22 30.12 1020 10 16.0934 0 0
3:35 am 03:35 Partly Cloudy 47 8.5 40 4.5 76 76 ESE 8 13 30.12 1020 10 16.0934 0 0
3:55 am 03:55 Mostly Cloudy 47 8.5 40 4.4 76 76 ESE 9 15 30.12 1020 10 16.0934 0 0
4:15 am 04:15 Cloudy 47 8.3 40 4.4 77 77 E 12 19 30.12 1020 10 16.0934 0 0
4:35 am 04:35 Cloudy 46 8 39 4.1 77 77 E 12 19 30.12 1020 10 16.0934 0 0
4:55 am 04:55 Cloudy 46 7.8 39 4 77 77 E 12 19 30.12 1020 10 16.0934 0 0
5:15 am 05:15 Cloudy 46 7.7 38 3.5 75 75 ESE 10 17 30.18 1022 10 16.0934 0 0
5:35 am 05:35 Cloudy 46 7.7 38 3.4 74 74 ESE 10 17 30.18 1022 10 16.0934 0 0
5:55 am 05:55 Cloudy 46 7.7 37 3 72 72 ESE 7 11 30.12 1020 10 16.0934 0 0
6:15 am 06:15 Cloudy 46 7.5 38 3.4 75 75 SE 9 15 30.15 1021 10 16.0934 0 0
6:35 am 06:35 Cloudy 45 7.3 37 2.5 72 72 ESE 12 19 30.15 1021 10 16.0934 0 0
6:55 am 06:55 Cloudy 45 7.3 37 2.5 72 72 E 10 17 30.15 1021 10 16.0934 0 0
7:15 am 07:15 Cloudy 45 7.2 36 2.4 72 72 E 10 17 30.12 1020 10 16.0934 0 0
7:35 am 07:35 Cloudy 46 7.5 37 2.5 71 71 E 10 17 30.09 1019 10 16.0934 0 0
7:55 am 07:55 Cloudy 45 7.2 36 2.2 71 71 E 10 17 30.15 1021 10 16.0934 0 0
8:15 am 08:15 Cloudy 46 7.5 36 2 68 68 E 8 13 30.15 1021 10 16.0934 0 0
8:35 am 08:35 Cloudy 46 7.7 35 1.8 67 67 E 9 15 30.12 1020 10 16.0934 0 0
8:55 am 08:55 Mostly Cloudy 47 8.2 35 1.8 64 64 E 12 19 30.12 1020 10 16.0934 0 0
9:15 am 09:15 Mostly Cloudy 47 8.5 35 1.4 61 61 E 16 26 30.12 1020 10 16.0934 0 0
9:35 am 09:35 Partly Cloudy 47 8.6 35 1.4 61 61 E 16 26 30.12 1020 10 16.0934 0 0
9:55 am 09:55 Sunny 49 9.4 35 1.7 59 59 E 14 22 30.12 1020 10 16.0934 0 0
10:15 am 10:15 Sunny 50 10 35 1.7 57 57 E 13 20 30.09 1019 10 16.0934 0 0
10:35 am 10:35 Sunny 49 9.6 36 2 59 59 E 16 26 30.09 1019 10 16.0934 0 0
10:55 am 10:55 Sunny 50 10 36 2.4 60 60 E 17 28 30.12 1020 10 16.0934 0 0
11:15 am 11:15 Partly Cloudy 51 10.3 37 2.6 59 59 E 14 22 30.12 1020 10 16.0934 0 0
11:35 am 11:35 Cloudy 51 10.8 38 3.2 60 60 E 13 20 30.12 1020 10 16.0934 0 0
11:55 am 11:55 Cloudy 52 11.1 37 2.6 56 56 E 15 24 30.09 1019 10 16.0934 0 0
12:15 pm 12:15 Cloudy 54 12.1 37 2.8 53 53 E 14 22 30.09 1019 10 16.0934 0 0
12:35 pm 12:35 Cloudy 53 11.5 37 2.8 55 55 E 16 26 30.09 1019 10 16.0934 0 0
12:55 pm 12:55 Cloudy 53 11.8 38 3.1 56 56 E 14 22 30.09 1019 10 16.0934 0 0
1:15 pm 13:15 Cloudy 54 12.1 38 3.1 54 54 E 15 24 30.09 1019 10 16.0934 0 0
1:35 pm 13:35 Cloudy 54 12.1 37 3 54 54 ENE 12 19 30.09 1019 10 16.0934 0 0
1:55 pm 13:55 Cloudy 54 12 37 2.9 54 54 E 13 20 30.09 1019 10 16.0934 0 0
2:15 pm 14:15 Cloudy 53 11.7 37 2.5 54 54 ENE 14 22 30.09 1019 10 16.0934 0 0
2:35 pm 14:35 Cloudy 54 12 37 2.7 53 53 NE 9 15 30.09 1019 10 16.0934 0 0
2:55 pm 14:55 Cloudy 55 12.5 37 2.8 52 52 ENE 9 15 30.09 1019 10 16.0934 0 0
3:15 pm 15:15 Cloudy 54 12.2 37 2.6 52 52 NE 10 17 30.09 1019 10 16.0934 0 0
3:35 pm 15:35 Cloudy 55 12.9 37 2.5 50 50 E 12 19 30.09 1019 10 16.0934 0 0
3:55 pm 15:55 Cloudy 55 12.9 36 2 48 48 E 12 19 30.09 1019 10 16.0934 0 0
4:15 pm 16:15 Cloudy 55 12.6 35 1.7 48 48 NE 14 22 30.09 1019 10 16.0934 0 0
4:35 pm 16:35 Cloudy 55 12.7 36 2 48 48 ENE 13 20 30.09 1019 10 16.0934 0 0
4:55 pm 16:55 Cloudy 55 12.8 36 2.2 49 49 NE 14 22 30.09 1019 10 16.0934 0 0
5:15 pm 17:15 Mostly Cloudy 55 13 36 2.1 48 48 ENE 15 24 30.09 1019 10 16.0934 0 0
5:35 pm 17:35 Cloudy 56 13.1 35 1.9 47 47 ENE 9 15 30.09 1019 10 16.0934 0 0
5:55 pm 17:55 Cloudy 56 13.1 34 1.1 44 44 E 13 20 30.09 1019 10 16.0934 0 0
6:15 pm 18:15 Cloudy 55 13 33 0.4 42 42 E 9 15 30.09 1019 10 16.0934 0 0
6:35 pm 18:35 Cloudy 55 12.8 33 0.3 43 43 E 13 20 30.12 1020 10 16.0934 0 0
6:55 pm 18:55 Cloudy 55 12.9 33 0.3 42 42 ENE 13 20 30.12 1020 10 16.0934 0 0
7:15 pm 19:15 Cloudy 55 12.7 32 0 42 42 ENE 13 20 30.12 1020 10 16.0934 0 0
7:35 pm 19:35 Cloudy 54 12.2 32 -0.2 43 43 E 14 22 30.12 1020 10 16.0934 0 0
7:55 pm 19:55 Partly Cloudy 53 11.5 32 0 45 45 E 9 15 30.12 1020 10 16.0934 0 0
8:15 pm 20:15 Sunny 51 10.5 33 0.5 50 50 E 12 19 30.15 1021 10 16.0934 0 0
8:35 pm 20:35 Clear 50 9.9 32 0.2 51 51 E 9 15 30.18 1022 10 16.0934 0 0
8:55 pm 20:55 Clear 47 8.4 33 0.4 57 57 E 7 11 30.18 1022 10 16.0934 0 0
9:15 pm 21:15 Partly Cloudy 45 7.4 33 0.3 61 61 ENE 12 19 30.21 1023 10 16.0934 0 0
9:35 pm 21:35 Partly Cloudy 45 7.3 33 0.5 62 62 ENE 8 13 30.21 1023 10 16.0934 0 0
9:55 pm 21:55 Clear 45 7 34 1.1 66 66 ENE 8 13 30.24 1024 10 16.0934 0 0
10:15 pm 22:15 Clear 44 6.9 34 1.2 67 67 ENE 8 13 30.24 1024 10 16.0934 0 0
10:35 pm 22:35 Clear 45 7 34 1 66 66 ENE 8 13 30.24 1024 10 16.0934 0 0
10:55 pm 22:55 Clear 43 6.1 34 1 70 70 ENE 7 11 30.24 1024 10 16.0934 0 0
11:15 pm 23:15 Clear 42 5.4 33 0.6 71 71 NNE 6 9 30.27 1025 10 16.0934 0 0
11:35 pm 23:35 Clear 39 4.1 32 0 75 75 NNE 6 9 30.3 1026 10 16.0934 0 0
11:55 pm 23:55 Clear 39 4 32 0.2 77 77 NNE 5 7 30.3 1026 10 16.0934 0 0

Powered by AerisWeather